KMY030 SKPC-SKBG

Flight info

Callsign KMY030
Flight time N/A
Altitude 16000
Route SIDUN2A SIDUN W24 EYP W34 MOGOS MOGOS2A
Aircraft PA34/L-SDFGRY/S

Departure

Time 2026-04-18 23:11
Airport German Olano Airport (SKPC)

Arrival

Time N/A
Airport Palonegro Airport (SKBG)
Time Latitude Longitude Altitude Speed Heading
2026-04-18 22:32 6.18732 -67.48749 183 ft 0 kts 330°
2026-04-18 23:02 6.18733 -67.48749 183 ft 1 kts 330°
2026-04-18 23:02 6.18764 -67.48757 183 ft 1 kts 28°
2026-04-18 23:02 6.18766 -67.48757 183 ft 2 kts 28°
2026-04-18 23:03 6.18801 -67.48716 183 ft 15 kts 73°
2026-04-18 23:03 6.18853 -67.48647 183 ft 7 kts 85°
2026-04-18 23:03 6.18857 -67.48633 183 ft 1 kts 72°
2026-04-18 23:03 6.18880 -67.48560 183 ft 20 kts 73°
2026-04-18 23:04 6.18911 -67.48505 183 ft 0 kts 305°
2026-04-18 23:04 6.18912 -67.48505 183 ft 0 kts 305°
2026-04-18 23:04 6.18912 -67.48506 183 ft 0 kts 305°
2026-04-18 23:04 6.18914 -67.48539 183 ft 3 kts 238°
2026-04-18 23:05 6.18913 -67.48541 183 ft 0 kts 240°
2026-04-18 23:08 6.18913 -67.48542 183 ft 0 kts 240°
2026-04-18 23:10 6.18847 -67.48656 183 ft 44 kts 242°
2026-04-18 23:10 6.18608 -67.49104 183 ft 89 kts 234°
2026-04-18 23:10 6.18243 -67.49777 191 ft 122 kts 241°
2026-04-18 23:11 6.17884 -67.50438 723 ft 101 kts 241°
2026-04-18 23:11 6.17532 -67.51088 1135 ft 95 kts 241°
2026-04-18 23:11 6.17227 -67.51649 1624 ft 84 kts 241°
2026-04-18 23:11 6.16953 -67.52154 1994 ft 82 kts 241°
2026-04-18 23:12 6.16676 -67.52665 2339 ft 83 kts 241°
2026-04-18 23:12 6.16491 -67.53005 2583 ft 83 kts 241°
2026-04-18 23:12 6.16208 -67.53527 2936 ft 84 kts 241°
2026-04-18 23:12 6.15928 -67.54043 3294 ft 85 kts 241°
2026-04-18 23:13 6.15643 -67.54567 3649 ft 86 kts 242°
2026-04-18 23:13 6.15318 -67.55166 3869 ft 105 kts 243°
2026-04-18 23:13 6.14926 -67.55891 4192 ft 103 kts 243°
2026-04-18 23:13 6.14643 -67.56392 4792 ft 87 kts 246°
2026-04-18 23:14 6.14273 -67.57089 4755 ft 132 kts 246°
2026-04-18 23:14 6.13806 -67.58004 4808 ft 155 kts 246°
2026-04-18 23:14 6.13301 -67.59006 4915 ft 165 kts 246°
2026-04-18 23:14 6.12774 -67.60060 5049 ft 171 kts 246°
2026-04-18 23:15 6.12231 -67.61147 5197 ft 173 kts 246°
2026-04-18 23:15 6.11697 -67.62217 5350 ft 174 kts 246°
2026-04-18 23:15 6.11153 -67.63308 5509 ft 175 kts 247°
2026-04-18 23:15 6.10599 -67.64418 5631 ft 177 kts 247°
2026-04-18 23:16 6.10026 -67.65574 5611 ft 184 kts 247°
2026-04-18 23:16 6.09454 -67.66730 5605 ft 188 kts 247°
2026-04-18 23:16 6.08874 -67.67903 5754 ft 182 kts 247°
2026-04-18 23:16 6.08314 -67.69031 5916 ft 178 kts 247°
2026-04-18 23:17 6.07758 -67.70146 6086 ft 175 kts 246°
2026-04-18 23:17 6.07214 -67.71236 6256 ft 173 kts 246°
2026-04-18 23:17 6.06665 -67.72335 6431 ft 170 kts 246°
2026-04-18 23:17 6.06144 -67.73377 6600 ft 169 kts 246°
2026-04-18 23:18 6.05582 -67.74503 6529 ft 180 kts 246°
2026-04-18 23:18 6.05028 -67.75619 6609 ft 178 kts 246°
2026-04-18 23:18 6.04469 -67.76747 6677 ft 177 kts 246°
2026-04-18 23:18 6.03929 -67.77831 6819 ft 174 kts 246°
2026-04-18 23:19 6.03379 -67.78934 6969 ft 172 kts 246°
2026-04-18 23:19 6.02862 -67.79970 7112 ft 171 kts 246°
2026-04-18 23:19 6.02316 -67.81063 7264 ft 170 kts 246°
2026-04-18 23:19 6.01769 -67.82158 7418 ft 169 kts 246°
2026-04-18 23:20 6.01242 -67.83212 7567 ft 169 kts 246°
2026-04-18 23:20 6.00712 -67.84273 7718 ft 169 kts 246°
2026-04-18 23:20 6.00204 -67.85290 7862 ft 169 kts 246°
2026-04-18 23:20 5.99625 -67.86447 8026 ft 170 kts 246°
2026-04-18 23:21 5.99272 -67.87155 8126 ft 170 kts 246°
2026-04-18 23:21 5.98739 -67.88222 8278 ft 170 kts 246°
2026-04-18 23:21 5.98209 -67.89282 8428 ft 170 kts 246°
2026-04-18 23:21 5.97678 -67.90346 8578 ft 170 kts 246°
2026-04-18 23:22 5.97135 -67.91433 8731 ft 171 kts 246°
2026-04-18 23:22 5.96590 -67.92524 8885 ft 171 kts 246°
2026-04-18 23:22 5.96057 -67.93591 9036 ft 171 kts 246°
2026-04-18 23:23 5.94983 -67.95743 9338 ft 172 kts 246°
2026-04-18 23:23 5.94613 -67.96890 9481 ft 170 kts 269°
2026-04-18 23:23 5.94831 -67.98043 9672 ft 169 kts 284°
2026-04-18 23:23 5.95183 -67.99165 9823 ft 170 kts 286°
2026-04-18 23:24 5.95562 -68.00322 9978 ft 171 kts 286°
2026-04-18 23:24 5.95937 -68.01475 10131 ft 171 kts 286°
2026-04-18 23:24 5.96309 -68.02635 10284 ft 172 kts 285°
2026-04-18 23:24 5.96678 -68.03805 10438 ft 172 kts 285°
2026-04-18 23:25 5.97030 -68.04938 10587 ft 172 kts 285°
2026-04-18 23:25 5.97389 -68.06117 10741 ft 173 kts 285°
2026-04-18 23:25 5.97735 -68.07272 10891 ft 173 kts 285°
2026-04-18 23:25 5.98079 -68.08443 11043 ft 173 kts 284°
2026-04-18 23:26 5.98263 -68.09078 11125 ft 173 kts 284°
2026-04-18 23:26 5.98539 -68.10040 11249 ft 174 kts 284°
2026-04-18 23:26 5.98886 -68.11275 11408 ft 174 kts 284°
2026-04-18 23:26 5.99216 -68.12478 11562 ft 174 kts 283°
2026-04-18 23:27 5.99543 -68.13690 11717 ft 174 kts 283°
2026-04-18 23:27 5.99850 -68.14857 11866 ft 175 kts 283°
2026-04-18 23:27 6.00157 -68.16049 12018 ft 175 kts 283°
2026-04-18 23:27 6.00457 -68.17241 12169 ft 175 kts 282°
2026-04-18 23:28 6.00751 -68.18437 12321 ft 175 kts 282°
2026-04-18 23:28 6.01041 -68.19650 12474 ft 176 kts 282°
2026-04-18 23:28 6.01321 -68.20851 12625 ft 176 kts 281°
2026-04-18 23:28 6.01593 -68.22049 12775 ft 176 kts 281°
2026-04-18 23:29 6.01864 -68.23276 12928 ft 176 kts 281°
2026-04-18 23:29 6.02127 -68.24505 13082 ft 177 kts 281°
2026-04-18 23:29 6.02374 -68.25697 13230 ft 177 kts 280°
2026-04-18 23:29 6.02618 -68.26926 13383 ft 177 kts 279°
2026-04-18 23:30 6.02745 -68.27754 13484 ft 177 kts 276°
2026-04-18 23:30 6.02838 -68.29144 13654 ft 177 kts 271°
2026-04-18 23:30 6.02814 -68.30415 13809 ft 177 kts 267°
2026-04-18 23:30 6.02719 -68.31675 13962 ft 178 kts 265°
2026-04-18 23:31 6.02584 -68.32896 14111 ft 178 kts 264°
2026-04-18 23:31 6.02422 -68.34121 14260 ft 178 kts 263°
2026-04-18 23:31 6.02239 -68.35380 14414 ft 179 kts 262°
2026-04-18 23:31 6.02048 -68.36618 14564 ft 179 kts 262°
2026-04-18 23:32 6.01848 -68.37878 14718 ft 179 kts 262°
2026-04-18 23:32 6.01647 -68.39117 14868 ft 180 kts 262°
2026-04-18 23:32 6.01440 -68.40377 15021 ft 180 kts 262°
2026-04-18 23:32 6.01228 -68.41662 15177 ft 180 kts 262°
2026-04-18 23:33 6.01024 -68.42896 15326 ft 180 kts 262°
2026-04-18 23:33 6.00813 -68.44163 15479 ft 181 kts 262°
2026-04-18 23:33 6.00603 -68.45424 15632 ft 181 kts 262°
2026-04-18 23:33 6.00389 -68.46707 15792 ft 181 kts 262°
2026-04-18 23:34 6.00179 -68.47970 15927 ft 182 kts 262°
2026-04-18 23:34 5.99959 -68.49286 15996 ft 186 kts 261°
2026-04-18 23:34 5.99742 -68.50590 16006 ft 191 kts 261°
2026-04-18 23:34 5.99519 -68.51920 16005 ft 195 kts 261°
2026-04-18 23:35 5.99291 -68.53279 16004 ft 197 kts 261°
2026-04-18 23:35 5.99131 -68.54233 16003 ft 198 kts 261°
2026-04-18 23:35 5.98894 -68.55641 16002 ft 199 kts 261°
2026-04-18 23:35 5.98663 -68.57023 16001 ft 200 kts 261°
2026-04-18 23:36 5.98427 -68.58431 16001 ft 200 kts 261°
2026-04-18 23:36 5.98195 -68.59818 16000 ft 201 kts 261°
2026-04-18 23:36 5.97962 -68.61206 16000 ft 201 kts 261°
2026-04-18 23:36 5.97718 -68.62670 16000 ft 201 kts 261°
2026-04-18 23:37 5.97487 -68.64050 16000 ft 201 kts 261°
2026-04-18 23:37 5.97255 -68.65440 16000 ft 201 kts 261°
2026-04-18 23:37 5.97020 -68.66843 16000 ft 201 kts 261°
2026-04-18 23:37 5.96787 -68.68240 16000 ft 201 kts 261°
2026-04-18 23:38 5.96555 -68.69628 16000 ft 201 kts 261°
2026-04-18 23:38 5.96324 -68.71016 16000 ft 201 kts 261°
2026-04-18 23:38 5.96088 -68.72427 16000 ft 201 kts 261°
2026-04-18 23:38 5.95853 -68.73833 16000 ft 201 kts 261°
2026-04-18 23:39 5.95622 -68.75219 16000 ft 201 kts 261°
2026-04-18 23:39 5.95391 -68.76604 16000 ft 201 kts 261°
2026-04-18 23:39 5.95158 -68.78005 16000 ft 201 kts 261°
2026-04-18 23:39 5.94923 -68.79412 16000 ft 201 kts 261°
2026-04-18 23:40 5.94689 -68.80819 16000 ft 201 kts 261°
2026-04-18 23:40 5.94462 -68.82185 16000 ft 201 kts 261°
2026-04-18 23:40 5.94302 -68.83148 16000 ft 201 kts 261°
2026-04-18 23:40 5.94065 -68.84579 16000 ft 201 kts 261°
2026-04-18 23:41 5.93837 -68.85959 16000 ft 201 kts 262°
2026-04-18 23:41 5.93607 -68.87357 16000 ft 201 kts 262°
2026-04-18 23:41 5.93376 -68.88770 16000 ft 201 kts 262°
2026-04-18 23:41 5.93136 -68.90212 16000 ft 201 kts 261°
2026-04-18 23:42 5.92886 -68.91599 16000 ft 201 kts 261°
2026-04-18 23:42 5.92633 -68.92974 16000 ft 201 kts 261°
2026-04-18 23:42 5.92375 -68.94382 16000 ft 201 kts 261°
2026-04-18 23:42 5.92126 -68.95750 16000 ft 201 kts 261°
2026-04-18 23:43 5.91872 -68.97151 16000 ft 201 kts 261°
2026-04-18 23:43 5.91620 -68.98545 16000 ft 201 kts 261°
2026-04-18 23:43 5.91367 -68.99951 16000 ft 201 kts 261°
2026-04-18 23:43 5.91109 -69.01383 16000 ft 201 kts 261°
2026-04-18 23:44 5.90866 -69.02734 16000 ft 201 kts 261°
2026-04-18 23:44 5.90618 -69.04120 16000 ft 201 kts 261°
2026-04-18 23:44 5.90363 -69.05535 16000 ft 201 kts 261°
2026-04-18 23:44 5.90115 -69.06920 16000 ft 201 kts 261°
2026-04-18 23:45 5.89862 -69.08327 16000 ft 201 kts 261°
2026-04-18 23:45 5.89610 -69.09734 16000 ft 201 kts 261°
2026-04-18 23:45 5.89361 -69.11119 16000 ft 201 kts 261°
2026-04-18 23:45 5.89108 -69.12528 16000 ft 201 kts 261°
2026-04-18 23:46 5.88858 -69.13920 16000 ft 201 kts 261°
2026-04-18 23:46 5.88606 -69.15324 16000 ft 201 kts 261°
2026-04-18 23:46 5.88362 -69.16682 16000 ft 201 kts 261°
2026-04-18 23:46 5.88107 -69.18101 16000 ft 201 kts 261°
2026-04-18 23:47 5.87938 -69.19041 16000 ft 201 kts 261°
2026-04-18 23:47 5.87685 -69.20450 16000 ft 201 kts 261°
2026-04-18 23:47 5.87436 -69.21837 16000 ft 201 kts 261°
2026-04-18 23:47 5.87189 -69.23214 16000 ft 201 kts 261°
2026-04-18 23:48 5.86940 -69.24594 16000 ft 201 kts 261°
2026-04-18 23:48 5.86683 -69.26026 16000 ft 201 kts 261°
2026-04-18 23:48 5.86423 -69.27472 16000 ft 201 kts 261°
2026-04-18 23:48 5.86169 -69.28885 16000 ft 201 kts 261°
2026-04-18 23:49 5.85915 -69.30295 16000 ft 201 kts 261°
2026-04-18 23:49 5.85663 -69.31701 16000 ft 201 kts 261°
2026-04-18 23:49 5.85413 -69.33088 16000 ft 201 kts 261°
2026-04-18 23:49 5.85165 -69.34466 16000 ft 201 kts 261°
2026-04-18 23:50 5.84916 -69.35851 16000 ft 201 kts 261°
2026-04-18 23:50 5.84659 -69.37278 16000 ft 201 kts 261°
2026-04-18 23:50 5.84408 -69.38675 16000 ft 201 kts 261°
2026-04-18 23:50 5.84157 -69.40071 16000 ft 201 kts 261°
2026-04-18 23:51 5.83905 -69.41470 16000 ft 201 kts 261°
2026-04-18 23:51 5.83651 -69.42879 16000 ft 201 kts 261°
2026-04-18 23:51 5.83400 -69.44275 16000 ft 201 kts 261°
2026-04-18 23:51 5.83153 -69.45646 16000 ft 201 kts 261°
2026-04-18 23:52 5.82901 -69.47048 16000 ft 201 kts 261°
2026-04-18 23:52 5.82649 -69.48448 16000 ft 201 kts 261°
2026-04-18 23:52 5.82478 -69.49397 16000 ft 201 kts 261°
2026-04-18 23:52 5.82231 -69.50764 16000 ft 201 kts 261°
2026-04-18 23:53 5.81977 -69.52177 16000 ft 201 kts 261°
2026-04-18 23:53 5.81725 -69.53573 16000 ft 201 kts 261°
2026-04-18 23:53 5.81476 -69.54954 16000 ft 201 kts 261°
2026-04-18 23:53 5.81228 -69.56333 16000 ft 201 kts 261°
2026-04-18 23:54 5.80978 -69.57723 16000 ft 201 kts 261°
2026-04-18 23:54 5.80725 -69.59123 16000 ft 201 kts 261°
2026-04-18 23:54 5.80473 -69.60523 16000 ft 201 kts 261°
2026-04-18 23:54 5.80219 -69.61933 16000 ft 201 kts 261°
2026-04-18 23:55 5.79969 -69.63321 16000 ft 201 kts 261°
2026-04-18 23:55 5.79714 -69.64737 16000 ft 201 kts 261°
2026-04-18 23:55 5.79461 -69.66139 16000 ft 201 kts 261°
2026-04-18 23:55 5.79210 -69.67528 16000 ft 201 kts 261°
2026-04-18 23:56 5.78959 -69.68921 16000 ft 201 kts 261°
2026-04-18 23:56 5.78715 -69.70276 16000 ft 201 kts 261°
2026-04-18 23:56 5.78460 -69.71691 16000 ft 201 kts 261°
2026-04-18 23:56 5.78210 -69.73082 16000 ft 201 kts 261°
2026-04-18 23:57 5.77959 -69.74472 16000 ft 201 kts 261°
2026-04-18 23:57 5.77709 -69.75862 16000 ft 201 kts 261°
2026-04-18 23:57 5.77453 -69.77283 16000 ft 201 kts 261°
2026-04-18 23:57 5.77199 -69.78691 16000 ft 201 kts 261°
2026-04-18 23:58 5.76943 -69.80113 16000 ft 201 kts 261°
2026-04-18 23:58 5.76695 -69.81492 16000 ft 201 kts 261°
2026-04-18 23:58 5.76442 -69.82896 16000 ft 201 kts 261°
2026-04-18 23:58 5.76196 -69.84266 16000 ft 201 kts 261°
2026-04-18 23:59 5.76021 -69.85242 16000 ft 201 kts 261°
2026-04-18 23:59 5.75766 -69.86661 16000 ft 201 kts 261°
2026-04-18 23:59 5.75514 -69.88067 16000 ft 201 kts 261°
2026-04-18 23:59 5.75265 -69.89455 16000 ft 201 kts 261°
2026-04-19 00:00 5.75020 -69.90825 16000 ft 201 kts 261°
2026-04-19 00:00 5.74734 -69.92429 16000 ft 201 kts 261°
2026-04-19 00:00 5.74485 -69.93829 16000 ft 201 kts 261°
2026-04-19 00:00 5.74241 -69.95214 16000 ft 201 kts 261°
2026-04-19 00:01 5.73995 -69.96616 16000 ft 201 kts 261°
2026-04-19 00:01 5.73753 -69.98015 16000 ft 201 kts 261°
2026-04-19 00:01 5.73504 -69.99421 16000 ft 201 kts 260°
2026-04-19 00:01 5.73235 -70.00818 16000 ft 201 kts 260°
2026-04-19 00:02 5.72964 -70.02216 16000 ft 201 kts 260°
2026-04-19 00:02 5.72699 -70.03602 16000 ft 201 kts 260°
2026-04-19 00:02 5.72436 -70.04999 16000 ft 201 kts 260°
2026-04-19 00:02 5.72178 -70.06382 16000 ft 201 kts 261°
2026-04-19 00:03 5.72008 -70.07299 16000 ft 201 kts 261°
2026-04-19 00:03 5.71748 -70.08715 16000 ft 201 kts 261°
2026-04-19 00:03 5.71490 -70.10119 16000 ft 201 kts 261°
2026-04-19 00:03 5.71240 -70.11490 16000 ft 201 kts 261°
2026-04-19 00:04 5.70985 -70.12883 16000 ft 201 kts 261°
2026-04-19 00:04 5.70729 -70.14291 16000 ft 201 kts 261°
2026-04-19 00:04 5.70477 -70.15675 16000 ft 201 kts 261°
2026-04-19 00:04 5.70225 -70.17055 16000 ft 201 kts 261°
2026-04-19 00:05 5.69970 -70.18457 16000 ft 201 kts 261°
2026-04-19 00:05 5.69718 -70.19843 16000 ft 201 kts 261°
2026-04-19 00:05 5.69462 -70.21248 16000 ft 201 kts 261°
2026-04-19 00:05 5.69206 -70.22655 16000 ft 201 kts 261°
2026-04-19 00:06 5.68955 -70.24035 16000 ft 201 kts 261°
2026-04-19 00:06 5.68701 -70.25432 16000 ft 201 kts 261°
2026-04-19 00:06 5.68444 -70.26844 16000 ft 201 kts 261°
2026-04-19 00:06 5.68193 -70.28221 16000 ft 201 kts 261°
2026-04-19 00:07 5.67938 -70.29622 16000 ft 201 kts 261°
2026-04-19 00:07 5.67685 -70.31012 16000 ft 201 kts 261°
2026-04-19 00:07 5.67430 -70.32407 16000 ft 201 kts 261°
2026-04-19 00:07 5.67177 -70.33796 16000 ft 201 kts 261°
2026-04-19 00:08 5.66925 -70.35182 16000 ft 201 kts 261°
2026-04-19 00:08 5.66667 -70.36594 16000 ft 201 kts 261°
2026-04-19 00:08 5.66418 -70.37961 16000 ft 201 kts 261°
2026-04-19 00:08 5.66158 -70.39388 16000 ft 201 kts 261°
2026-04-19 00:09 5.65906 -70.40774 16000 ft 201 kts 261°
2026-04-19 00:09 5.65648 -70.42189 16000 ft 201 kts 261°
2026-04-19 00:09 5.65390 -70.43603 16000 ft 201 kts 261°
2026-04-19 00:09 5.65140 -70.44975 16000 ft 201 kts 261°
2026-04-19 00:10 5.64881 -70.46391 16000 ft 201 kts 261°
2026-04-19 00:10 5.64628 -70.47777 16000 ft 201 kts 261°
2026-04-19 00:10 5.64374 -70.49174 16000 ft 201 kts 261°
2026-04-19 00:10 5.64199 -70.50129 16000 ft 201 kts 261°
2026-04-19 00:11 5.63946 -70.51517 16000 ft 201 kts 261°
2026-04-19 00:11 5.63694 -70.52898 16000 ft 201 kts 261°
2026-04-19 00:11 5.63443 -70.54275 16000 ft 201 kts 261°
2026-04-19 00:11 5.63183 -70.55698 16000 ft 201 kts 261°
2026-04-19 00:12 5.62931 -70.57080 16000 ft 201 kts 261°
2026-04-19 00:12 5.62678 -70.58465 16000 ft 201 kts 261°
2026-04-19 00:12 5.62424 -70.59854 16000 ft 201 kts 261°
2026-04-19 00:12 5.62172 -70.61233 16000 ft 201 kts 261°
2026-04-19 00:13 5.61914 -70.62646 16000 ft 201 kts 261°
2026-04-19 00:13 5.61663 -70.64019 16000 ft 201 kts 261°
2026-04-19 00:13 5.61404 -70.65440 16000 ft 201 kts 261°
2026-04-19 00:13 5.61151 -70.66823 16000 ft 201 kts 261°
2026-04-19 00:14 5.60895 -70.68223 16000 ft 201 kts 261°
2026-04-19 00:14 5.60643 -70.69604 16000 ft 201 kts 261°
2026-04-19 00:14 5.60389 -70.70989 16000 ft 201 kts 261°
2026-04-19 00:14 5.60133 -70.72390 16000 ft 201 kts 261°
2026-04-19 00:15 5.59881 -70.73771 16000 ft 201 kts 261°
2026-04-19 00:15 5.59628 -70.75153 16000 ft 201 kts 261°
2026-04-19 00:15 5.59370 -70.76565 16000 ft 201 kts 261°
2026-04-19 00:15 5.59117 -70.77948 16000 ft 201 kts 261°
2026-04-19 00:16 5.58863 -70.79335 16000 ft 201 kts 261°
2026-04-19 00:16 5.58607 -70.80733 16000 ft 201 kts 261°
2026-04-19 00:16 5.58356 -70.82104 16000 ft 201 kts 261°
2026-04-19 00:16 5.58100 -70.83507 16000 ft 201 kts 261°
2026-04-19 00:17 5.57839 -70.84929 16000 ft 201 kts 261°
2026-04-19 00:17 5.57572 -70.86388 16000 ft 201 kts 261°
2026-04-19 00:17 5.57316 -70.87787 16000 ft 201 kts 261°
2026-04-19 00:17 5.57059 -70.89195 16000 ft 201 kts 261°
2026-04-19 00:18 5.56805 -70.90579 16000 ft 201 kts 261°
2026-04-19 00:18 5.56554 -70.91949 16000 ft 201 kts 261°
2026-04-19 00:18 5.56383 -70.92886 16000 ft 201 kts 261°
2026-04-19 00:18 5.56131 -70.94261 16000 ft 201 kts 261°
2026-04-19 00:19 5.55873 -70.95670 16000 ft 201 kts 261°
2026-04-19 00:19 5.55620 -70.97051 16000 ft 201 kts 261°
2026-04-19 00:19 5.55365 -70.98440 16000 ft 201 kts 261°
2026-04-19 00:19 5.55108 -70.99842 16000 ft 201 kts 261°
2026-04-19 00:20 5.54854 -71.01228 16000 ft 201 kts 261°
2026-04-19 00:20 5.54598 -71.02625 16000 ft 201 kts 261°
2026-04-19 00:20 5.54344 -71.04016 16000 ft 202 kts 261°
2026-04-19 00:20 5.54089 -71.05403 16000 ft 202 kts 261°
2026-04-19 00:21 5.53831 -71.06813 16000 ft 202 kts 261°
2026-04-19 00:21 5.53580 -71.08183 16000 ft 202 kts 261°
2026-04-19 00:21 5.53323 -71.09582 16000 ft 202 kts 261°
2026-04-19 00:21 5.53070 -71.10962 16000 ft 202 kts 261°
2026-04-19 00:22 5.52810 -71.12383 16000 ft 202 kts 261°
2026-04-19 00:22 5.52559 -71.13750 16000 ft 202 kts 261°
2026-04-19 00:22 5.52301 -71.15159 16000 ft 202 kts 261°
2026-04-19 00:22 5.52043 -71.16564 16000 ft 202 kts 261°
2026-04-19 00:23 5.51784 -71.17978 16000 ft 202 kts 261°
2026-04-19 00:23 5.51529 -71.19365 16000 ft 202 kts 261°
2026-04-19 00:23 5.51274 -71.20757 16000 ft 202 kts 261°
2026-04-19 00:23 5.51018 -71.22153 16000 ft 202 kts 261°
2026-04-19 00:24 5.50761 -71.23556 16000 ft 202 kts 261°
2026-04-19 00:24 5.50504 -71.24953 16000 ft 202 kts 261°
2026-04-19 00:24 5.50250 -71.26342 16000 ft 202 kts 261°
2026-04-19 00:24 5.49992 -71.27747 16000 ft 202 kts 261°
2026-04-19 00:25 5.49736 -71.29145 16000 ft 202 kts 261°
2026-04-19 00:25 5.49484 -71.30518 16000 ft 202 kts 261°
2026-04-19 00:25 5.49226 -71.31923 16000 ft 202 kts 261°
2026-04-19 00:25 5.48978 -71.33278 16000 ft 202 kts 261°
2026-04-19 00:26 5.48721 -71.34679 16000 ft 202 kts 261°
2026-04-19 00:26 5.48462 -71.36091 16000 ft 202 kts 261°
2026-04-19 00:26 5.48205 -71.37495 16000 ft 202 kts 261°
2026-04-19 00:26 5.47952 -71.38874 16000 ft 202 kts 261°
2026-04-19 00:27 5.47698 -71.40263 16000 ft 202 kts 261°
2026-04-19 00:27 5.47443 -71.41654 16000 ft 202 kts 261°
2026-04-19 00:27 5.47190 -71.43039 16000 ft 202 kts 261°
2026-04-19 00:27 5.46939 -71.44410 16000 ft 202 kts 261°
2026-04-19 00:28 5.46687 -71.45789 16000 ft 202 kts 261°
2026-04-19 00:28 5.46519 -71.46714 16000 ft 202 kts 261°
2026-04-19 00:28 5.46261 -71.48126 16000 ft 202 kts 261°
2026-04-19 00:28 5.46008 -71.49511 16000 ft 202 kts 261°
2026-04-19 00:29 5.45757 -71.50895 16000 ft 202 kts 261°
2026-04-19 00:29 5.45506 -71.52271 16000 ft 202 kts 261°
2026-04-19 00:29 5.45255 -71.53658 16000 ft 202 kts 261°
2026-04-19 00:29 5.45003 -71.55049 16000 ft 202 kts 261°
2026-04-19 00:30 5.44748 -71.56470 16000 ft 202 kts 261°
2026-04-19 00:30 5.44508 -71.57810 16000 ft 202 kts 261°
2026-04-19 00:30 5.44269 -71.59151 16000 ft 202 kts 261°
2026-04-19 00:30 5.44021 -71.60560 16000 ft 202 kts 261°
2026-04-19 00:31 5.43782 -71.61938 16000 ft 202 kts 261°
2026-04-19 00:31 5.43549 -71.63328 16000 ft 202 kts 261°
2026-04-19 00:31 5.43277 -71.64699 16000 ft 202 kts 259°
2026-04-19 00:31 5.42975 -71.66082 16000 ft 202 kts 259°
2026-04-19 00:32 5.42665 -71.67496 16000 ft 202 kts 259°
2026-04-19 00:32 5.42367 -71.68880 16000 ft 202 kts 259°
2026-04-19 00:32 5.42072 -71.70276 16000 ft 202 kts 259°
2026-04-19 00:32 5.41878 -71.71206 16000 ft 202 kts 259°
2026-04-19 00:33 5.41504 -71.73016 16000 ft 202 kts 259°
2026-04-19 00:33 5.41309 -71.73967 16000 ft 202 kts 259°
2026-04-19 00:33 5.41026 -71.75354 16000 ft 202 kts 259°
2026-04-19 00:33 5.40746 -71.76727 16000 ft 202 kts 259°
2026-04-19 00:34 5.40184 -71.79494 16000 ft 202 kts 259°
2026-04-19 00:34 5.39903 -71.80881 16000 ft 202 kts 259°
2026-04-19 00:34 5.39623 -71.82258 16000 ft 202 kts 259°
2026-04-19 00:35 5.39337 -71.83668 16000 ft 202 kts 259°
2026-04-19 00:35 5.39058 -71.85049 16000 ft 202 kts 259°
2026-04-19 00:35 5.38782 -71.86409 16000 ft 202 kts 259°
2026-04-19 00:35 5.38499 -71.87806 16000 ft 202 kts 259°
2026-04-19 00:36 5.38214 -71.89212 16000 ft 202 kts 259°
2026-04-19 00:36 5.37935 -71.90588 16000 ft 202 kts 259°
2026-04-19 00:36 5.37652 -71.91983 16000 ft 202 kts 259°
2026-04-19 00:36 5.37370 -71.93377 16000 ft 202 kts 259°
2026-04-19 00:37 5.37087 -71.94772 16000 ft 202 kts 259°
2026-04-19 00:37 5.36811 -71.96135 16000 ft 202 kts 259°
2026-04-19 00:37 5.36530 -71.97523 16000 ft 202 kts 259°
2026-04-19 00:37 5.36239 -71.98956 16000 ft 202 kts 259°
2026-04-19 00:38 5.35961 -72.00328 16000 ft 202 kts 259°
2026-04-19 00:38 5.35681 -72.01711 16000 ft 202 kts 259°
2026-04-19 00:38 5.35396 -72.03115 16000 ft 202 kts 259°
2026-04-19 00:38 5.35118 -72.04489 16000 ft 202 kts 259°
2026-04-19 00:39 5.34837 -72.05877 16000 ft 202 kts 259°
2026-04-19 00:39 5.34563 -72.07229 16000 ft 202 kts 259°
2026-04-19 00:39 5.34281 -72.08621 16000 ft 202 kts 259°
2026-04-19 00:39 5.33999 -72.10014 16000 ft 202 kts 259°
2026-04-19 00:40 5.33720 -72.11390 16000 ft 202 kts 259°
2026-04-19 00:40 5.33441 -72.12766 16000 ft 202 kts 259°
2026-04-19 00:40 5.33157 -72.14169 16000 ft 202 kts 259°
2026-04-19 00:40 5.32878 -72.15550 16000 ft 202 kts 259°
2026-04-19 00:41 5.32600 -72.16922 16000 ft 202 kts 259°
2026-04-19 00:41 5.32319 -72.18313 16000 ft 202 kts 259°
2026-04-19 00:41 5.32037 -72.19708 16000 ft 202 kts 259°
2026-04-19 00:41 5.31757 -72.21092 16000 ft 202 kts 259°
2026-04-19 00:42 5.31476 -72.22487 16000 ft 202 kts 259°
2026-04-19 00:42 5.31198 -72.23865 16000 ft 202 kts 259°
2026-04-19 00:42 5.30916 -72.25266 16000 ft 202 kts 259°
2026-04-19 00:42 5.30638 -72.26646 16000 ft 202 kts 259°
2026-04-19 00:43 5.30367 -72.27992 16000 ft 202 kts 259°
2026-04-19 00:43 5.30085 -72.29398 16000 ft 202 kts 260°
2026-04-19 00:43 5.29811 -72.30766 16000 ft 202 kts 260°
2026-04-19 00:43 5.29529 -72.32178 16000 ft 202 kts 260°
2026-04-19 00:44 5.29256 -72.33551 16000 ft 202 kts 260°
2026-04-19 00:44 5.28978 -72.34958 16000 ft 202 kts 260°
2026-04-19 00:44 5.28710 -72.36322 16000 ft 202 kts 260°
2026-04-19 00:44 5.28440 -72.37708 16000 ft 202 kts 260°
2026-04-19 00:45 5.28260 -72.38645 16000 ft 202 kts 260°
2026-04-19 00:45 5.27989 -72.40089 16000 ft 202 kts 261°
2026-04-19 00:45 5.27799 -72.41478 15996 ft 201 kts 271°
2026-04-19 00:45 5.28141 -72.42886 16011 ft 202 kts 289°
2026-04-19 00:46 5.28774 -72.44169 16006 ft 204 kts 296°
2026-04-19 00:46 5.29509 -72.45375 16002 ft 205 kts 300°
2026-04-19 00:46 5.30305 -72.46569 16001 ft 205 kts 301°
2026-04-19 00:46 5.31130 -72.47749 16000 ft 205 kts 302°
2026-04-19 00:47 5.31964 -72.48914 16000 ft 205 kts 302°
2026-04-19 00:47 5.32818 -72.50091 16000 ft 206 kts 302°
2026-04-19 00:47 5.33666 -72.51249 16000 ft 206 kts 303°
2026-04-19 00:47 5.34516 -72.52403 16000 ft 206 kts 303°
2026-04-19 00:48 5.35375 -72.53566 16000 ft 206 kts 303°
2026-04-19 00:48 5.36249 -72.54746 16000 ft 206 kts 303°
2026-04-19 00:48 5.37097 -72.55890 16000 ft 206 kts 303°
2026-04-19 00:48 5.37963 -72.57057 16000 ft 206 kts 303°
2026-04-19 00:49 5.38814 -72.58204 16000 ft 206 kts 303°
2026-04-19 00:49 5.39684 -72.59376 16000 ft 206 kts 303°
2026-04-19 00:49 5.40543 -72.60533 16000 ft 206 kts 303°
2026-04-19 00:49 5.41407 -72.61695 16000 ft 206 kts 303°
2026-04-19 00:50 5.42259 -72.62841 16000 ft 206 kts 303°
2026-04-19 00:50 5.43124 -72.64006 16000 ft 206 kts 303°
2026-04-19 00:50 5.43976 -72.65152 16000 ft 206 kts 303°
2026-04-19 00:50 5.44831 -72.66301 16000 ft 206 kts 303°
2026-04-19 00:51 5.45687 -72.67452 16000 ft 206 kts 303°
2026-04-19 00:51 5.46549 -72.68611 16000 ft 206 kts 303°
2026-04-19 00:51 5.47410 -72.69768 16000 ft 206 kts 303°
2026-04-19 00:51 5.48283 -72.70940 16000 ft 206 kts 303°
2026-04-19 00:52 5.49153 -72.72107 16000 ft 206 kts 303°
2026-04-19 00:52 5.50006 -72.73252 16000 ft 206 kts 303°
2026-04-19 00:52 5.50867 -72.74406 16000 ft 206 kts 303°
2026-04-19 00:52 5.51721 -72.75548 16000 ft 206 kts 303°
2026-04-19 00:53 5.52587 -72.76707 16000 ft 206 kts 303°
2026-04-19 00:53 5.53454 -72.77864 16000 ft 206 kts 303°
2026-04-19 00:53 5.54217 -72.78880 16000 ft 206 kts 303°
2026-04-19 00:53 5.54814 -72.79673 16000 ft 206 kts 303°
2026-04-19 00:54 5.55695 -72.80838 16000 ft 206 kts 303°
2026-04-19 00:54 5.56553 -72.81966 16000 ft 206 kts 304°
2026-04-19 00:54 5.57432 -72.83109 16000 ft 206 kts 304°
2026-04-19 00:54 5.58299 -72.84261 16000 ft 206 kts 302°
2026-04-19 00:55 5.59132 -72.85434 16000 ft 205 kts 302°
2026-04-19 00:55 5.59974 -72.86620 16000 ft 205 kts 302°
2026-04-19 00:55 5.60815 -72.87790 16000 ft 206 kts 302°
2026-04-19 00:55 5.61665 -72.88957 16000 ft 206 kts 303°
2026-04-19 00:56 5.62512 -72.90107 16000 ft 206 kts 303°
2026-04-19 00:56 5.63381 -72.91277 16000 ft 206 kts 303°
2026-04-19 00:56 5.64261 -72.92453 16000 ft 206 kts 303°
2026-04-19 00:56 5.65131 -72.93607 16000 ft 206 kts 303°
2026-04-19 00:57 5.66002 -72.94750 16000 ft 206 kts 304°
2026-04-19 00:57 5.66940 -72.95856 15996 ft 209 kts 314°
2026-04-19 00:57 5.68139 -72.96541 16010 ft 215 kts 332°
2026-04-19 00:57 5.69478 -72.96961 16007 ft 218 kts 340°
2026-04-19 00:58 5.71001 -72.97274 16003 ft 220 kts 344°
2026-04-19 00:58 5.72493 -72.97504 16001 ft 221 kts 346°
2026-04-19 00:58 5.74037 -72.97704 16000 ft 221 kts 347°
2026-04-19 00:58 5.75558 -72.97881 15997 ft 221 kts 347°
2026-04-19 00:59 5.77140 -72.98056 15891 ft 226 kts 348°
2026-04-19 00:59 5.78716 -72.98227 15771 ft 228 kts 348°
2026-04-19 00:59 5.80291 -72.98393 15650 ft 230 kts 348°
2026-04-19 00:59 5.81916 -72.98563 15524 ft 231 kts 348°
2026-04-19 01:00 5.83552 -72.98730 15397 ft 231 kts 348°
2026-04-19 01:00 5.84893 -72.98866 15293 ft 232 kts 348°
2026-04-19 01:00 5.86631 -72.99040 15131 ft 233 kts 348°
2026-04-19 01:00 5.88269 -72.99201 15029 ft 231 kts 349°
2026-04-19 01:01 5.89843 -72.99351 15001 ft 227 kts 349°
2026-04-19 01:01 5.91441 -72.99500 14997 ft 224 kts 349°
2026-04-19 01:01 5.92979 -72.99639 14997 ft 222 kts 349°
2026-04-19 01:01 5.94552 -72.99778 14998 ft 221 kts 349°
2026-04-19 01:02 5.96078 -72.99908 14999 ft 221 kts 349°
2026-04-19 01:02 5.97616 -73.00036 14999 ft 220 kts 348°
2026-04-19 01:02 5.99119 -73.00214 15000 ft 219 kts 347°
2026-04-19 01:02 6.00631 -73.00410 15000 ft 219 kts 347°
2026-04-19 01:03 6.02155 -73.00603 15000 ft 219 kts 347°
2026-04-19 01:03 6.03674 -73.00787 15000 ft 219 kts 347°
2026-04-19 01:03 6.05199 -73.00964 15000 ft 219 kts 347°
2026-04-19 01:03 6.06736 -73.01136 15000 ft 219 kts 348°
2026-04-19 01:04 6.08250 -73.01301 15000 ft 219 kts 348°
2026-04-19 01:04 6.09761 -73.01463 15000 ft 219 kts 348°
2026-04-19 01:04 6.11275 -73.01624 15000 ft 219 kts 348°
2026-04-19 01:04 6.12785 -73.01782 15000 ft 219 kts 348°
2026-04-19 01:05 6.14317 -73.01942 15000 ft 219 kts 348°
2026-04-19 01:05 6.15855 -73.02102 15000 ft 219 kts 348°
2026-04-19 01:05 6.17352 -73.02258 15000 ft 219 kts 348°
2026-04-19 01:05 6.18367 -73.02363 15000 ft 219 kts 348°
2026-04-19 01:06 6.19897 -73.02521 15000 ft 219 kts 348°
2026-04-19 01:06 6.21420 -73.02678 15000 ft 219 kts 348°
2026-04-19 01:06 6.22940 -73.02835 15000 ft 219 kts 348°
2026-04-19 01:06 6.24459 -73.02991 15000 ft 219 kts 348°
2026-04-19 01:07 6.25995 -73.03149 15000 ft 219 kts 348°
2026-04-19 01:07 6.27521 -73.03305 15000 ft 219 kts 348°
2026-04-19 01:07 6.29047 -73.03461 15000 ft 219 kts 348°
2026-04-19 01:07 6.30568 -73.03616 15000 ft 219 kts 348°
2026-04-19 01:08 6.32088 -73.03770 15000 ft 219 kts 348°
2026-04-19 01:08 6.33604 -73.03923 15000 ft 219 kts 348°
2026-04-19 01:08 6.35122 -73.04076 15000 ft 219 kts 348°
2026-04-19 01:08 6.36689 -73.04232 15000 ft 219 kts 348°
2026-04-19 01:09 6.38231 -73.04384 15000 ft 219 kts 348°
2026-04-19 01:09 6.39730 -73.04529 15000 ft 219 kts 348°
2026-04-19 01:09 6.41265 -73.04676 15000 ft 219 kts 348°
2026-04-19 01:09 6.42782 -73.04816 15000 ft 219 kts 349°
2026-04-19 01:10 6.44312 -73.04949 15000 ft 220 kts 349°
2026-04-19 01:10 6.45842 -73.05087 15000 ft 219 kts 348°
2026-04-19 01:10 6.47364 -73.05269 15000 ft 219 kts 347°
2026-04-19 01:10 6.48889 -73.05458 15000 ft 219 kts 347°
2026-04-19 01:11 6.50399 -73.05638 15000 ft 219 kts 347°
2026-04-19 01:11 6.51945 -73.05812 15000 ft 219 kts 348°
2026-04-19 01:11 6.53471 -73.05975 15000 ft 219 kts 348°
2026-04-19 01:11 6.55003 -73.06134 15000 ft 219 kts 348°
2026-04-19 01:12 6.56508 -73.06285 15000 ft 219 kts 348°
2026-04-19 01:12 6.58079 -73.06440 15000 ft 219 kts 348°
2026-04-19 01:12 6.59592 -73.06588 15000 ft 219 kts 348°
2026-04-19 01:12 6.61127 -73.06736 15000 ft 219 kts 348°
2026-04-19 01:13 6.62662 -73.06882 15000 ft 219 kts 348°
2026-04-19 01:13 6.64168 -73.07023 15000 ft 219 kts 349°
2026-04-19 01:13 6.65332 -73.07131 15000 ft 219 kts 349°
2026-04-19 01:13 6.66861 -73.07272 14895 ft 224 kts 349°
2026-04-19 01:14 6.68442 -73.07416 14758 ft 227 kts 349°
2026-04-19 01:14 6.69998 -73.07548 14645 ft 221 kts 349°
2026-04-19 01:14 6.71543 -73.07667 14497 ft 217 kts 349°
2026-04-19 01:14 6.73066 -73.07829 14350 ft 214 kts 347°
2026-04-19 01:15 6.74529 -73.08001 14208 ft 213 kts 347°
2026-04-19 01:15 6.75991 -73.08169 14067 ft 212 kts 347°
2026-04-19 01:15 6.77459 -73.08327 13924 ft 211 kts 348°
2026-04-19 01:15 6.78924 -73.08477 13783 ft 211 kts 348°
2026-04-19 01:16 6.80392 -73.08620 13641 ft 211 kts 348°
2026-04-19 01:16 6.81850 -73.08757 13499 ft 210 kts 348°
2026-04-19 01:16 6.83304 -73.08888 13358 ft 210 kts 349°
2026-04-19 01:16 6.84811 -73.08970 13213 ft 211 kts 352°
2026-04-19 01:17 6.86299 -73.09033 13070 ft 210 kts 351°
2026-04-19 01:17 6.87720 -73.09231 12932 ft 206 kts 342°
2026-04-19 01:17 6.89138 -73.09614 12788 ft 204 kts 337°
2026-04-19 01:17 6.90505 -73.10066 12645 ft 203 kts 335°
2026-04-19 01:18 6.91843 -73.10545 12503 ft 203 kts 334°
2026-04-19 01:18 6.93152 -73.11029 12363 ft 202 kts 334°
2026-04-19 01:18 6.94468 -73.11524 12222 ft 202 kts 334°
2026-04-19 01:18 6.95754 -73.12012 12084 ft 201 kts 334°
2026-04-19 01:19 6.96709 -73.12376 11981 ft 201 kts 333°
2026-04-19 01:19 6.98153 -73.12927 11825 ft 201 kts 333°
2026-04-19 01:19 6.99519 -73.13449 11677 ft 200 kts 333°
2026-04-19 01:19 7.00847 -73.13957 11533 ft 200 kts 333°
2026-04-19 01:20 7.02174 -73.14465 11389 ft 200 kts 333°
2026-04-19 01:20 7.03484 -73.14967 11126 ft 205 kts 333°
2026-04-19 01:20 7.04873 -73.15502 10825 ft 209 kts 334°
2026-04-19 01:20 7.06245 -73.16027 10527 ft 211 kts 334°
2026-04-19 01:21 7.07647 -73.16564 10109 ft 213 kts 334°
2026-04-19 01:21 7.08838 -73.17003 9670 ft 155 kts 333°
2026-04-19 01:21 7.09779 -73.17354 9126 ft 132 kts 331°
2026-04-19 01:21 7.10611 -73.17680 8600 ft 122 kts 330°
2026-04-19 01:22 7.11389 -73.17987 8088 ft 117 kts 329°
2026-04-19 01:22 7.12145 -73.18282 7583 ft 114 kts 330°
2026-04-19 01:22 7.12895 -73.18567 7069 ft 112 kts 335°
2026-04-19 01:22 7.13655 -73.18499 6488 ft 119 kts 33°
2026-04-19 01:23 7.13985 -73.18012 6125 ft 117 kts 76°